This is the latest recevied weather packets stored in our database for station/object KA1BMF-13. If no packets are shown the sender has not sent any weather packets the latest 10 day(s).
| Time | Temp. | Humidity | Pressure | Rain* | Wind** | Luminosity | Snow |
|---|---|---|---|---|---|---|---|
| 1788645018 | 22.22° C | 80% | 1010.2 hPa | 0 mm | - | 71 W/m² | - |
| 1788644418 | 22.22° C | 79% | 1010 hPa | 0 mm | - | 69 W/m² | - |
| 1788643818 | 22.22° C | 79% | 1009.9 hPa | 0 mm | - | 67 W/m² | - |
| 1788643218 | 22.78° C | 77% | 1009.9 hPa | 0 mm | - | 81 W/m² | - |
| 1788642619 | 22.78° C | 76% | 1009.7 hPa | 0 mm | - | 101 W/m² | - |
| 1788642018 | 23.33° C | 74% | 1009.7 hPa | 0 mm | - | 114 W/m² | - |
| 1788641419 | 23.33° C | 74% | 1009.5 hPa | 0 mm | - | 143 W/m² | - |
| 1788640819 | 22.78° C | 74% | 1009.4 hPa | 0 mm | - | 180 W/m² | - |
| 1788640217 | 22.78° C | 75% | 1009.5 hPa | 0 mm | - | 80 W/m² | - |
| 1788639622 | 22.78° C | 74% | 1009.6 hPa | 0 mm | - | 56 W/m² | - |
| 1788639016 | 23.33° C | 73% | 1009.6 hPa | 0 mm | - | 141 W/m² | - |
| 1788638420 | 23.89° C | 72% | 1009.6 hPa | 0 mm | - | 214 W/m² | - |
| 1788637820 | 23.33° C | 73% | 1009.6 hPa | 0 mm | - | 279 W/m² | - |
| 1788637217 | 23.33° C | 72% | 1009.6 hPa | 0 mm | - | 311 W/m² | - |
| 1788636617 | 23.89° C | 74% | 1009.6 hPa | 0 mm | - | 386 W/m² | - |
| 1788636017 | 23.89° C | 73% | 1009.6 hPa | 0 mm | - | 271 W/m² | - |
| 1788635417 | 24.44° C | 69% | 1009.7 hPa | 0 mm | - | 230 W/m² | - |
| 1788634818 | 24.44° C | 69% | 1009.6 hPa | 0 mm | - | 294 W/m² | - |
| 1788634218 | 24.44° C | 68% | 1009.6 hPa | 0 mm | - | 341 W/m² | - |
| 1788633618 | 23.33° C | 73% | 1009.7 hPa | 0 mm | - | 699 W/m² | - |
| 1788633018 | 23.33° C | 72% | 1009.7 hPa | 0 mm | - | 294 W/m² | - |
| 1788632419 | 23.33° C | 72% | 1009.8 hPa | 0 mm | - | 235 W/m² | - |
| 1788631819 | 23.33° C | 73% | 1009.8 hPa | 0 mm | - | 182 W/m² | - |
| 1788631219 | 23.89° C | 72% | 1009.9 hPa | 0 mm | - | 264 W/m² | - |
| 1788630619 | 24.44° C | 69% | 1009.9 hPa | 0 mm | - | 193 W/m² | - |
* Rain latest hour (hover to see other rain measurements)
** Current wind speed in m/s (hover to see current wind gust speed)